Regional Weather Roundup
Issued by NWS

Home | Current Version | Previous Version | Graphics & Text | Print | Product List | Glossary Off
Versions: 1 2 3 4 5 6 7 8 9 10 11 12 13 14 15 16 17 18 19 20 21 22 23 24 25 26 27 28 29 30 31 32 33 34 35 36 37 38 39 40 41 42 43 44 45 46 47 48 49 50

000
ASUS43 KMKX 301500
RWRWI

WISCONSIN REGIONAL WEATHER ROUNDUP
NATIONAL WEATHER SERVICE MILWAUKEE/SULLIVAN WI
1000 AM CDT THU JUL 30 2015

NOTE: "FAIR" INDICATES FEW OR NO CLOUDS BELOW 12,000 FEET WITH NO
SIGNIFICANT WEATHER AND/OR OBSTRUCTIONS TO VISIBILITY.

WIZ001-002-006>008-014>016-023>028-301600-
NORTHWEST WISCONSIN

CITY           SKY/WX    TMP DP  RH WIND       PRES   REMARKS
SUPERIOR ARPT  SUNNY     74  60  63 W8        29.95S
ASHLAND        MOSUNNY   75  58  55 W9G22     29.95R
HAYWARD        SUNNY     73  56  54 VRB5      29.99S
SIREN          SUNNY     72  58  62 W8        30.00S
CUMBERLAND     SUNNY     72  57  60 W9        30.01S
RICE LAKE      SUNNY     71  60  67 W5        30.02S
CHETEK         SUNNY     73  60  64 W7        30.01S
LADYSMITH      SUNNY     73  60  63 W8        30.01F
EAU CLAIRE     NOT AVBL
MENOMONIE      SUNNY     75  57  53 SW9       30.03R
NEW RICHMOND   SUNNY     73  56  54 W10       30.03R
OSCEOLA        SUNNY     73  59  61 W7        30.05R
$$

WIZ003>005-009-010-017-018-301600-
NORTH CENTRAL WISCONSIN

CITY           SKY/WX    TMP DP  RH WIND       PRES   REMARKS
MANITOWISH WTR SUNNY     72  56  57 NW21G30   29.94S
ARBOR VITAE    SUNNY     72  56  58 NW14G21   29.96R
WOODRUFF       SUNNY     72  56  58 NW14G21   29.96R
RHINELANDER    SUNNY     74  55  51 W14G24    29.97S
EAGLE RIVER    SUNNY     72  52  49 W18G25    29.94R
LAND O LAKES   SUNNY     73  53  50 NW14G22   29.93F
PHILLIPS       SUNNY     71  58  64 W5        29.98S
TOMAHAWK       SUNNY     71  56  59 W10G16    29.98S
MEDFORD        SUNNY     70  59  68 W12       30.01S
MERRILL        NOT AVBL
$$

WIZ029-030-035-036-043>047-301600-
CENTRAL WISCONSIN

CITY           SKY/WX    TMP DP  RH WIND       PRES   REMARKS
WAUSAU         SUNNY     76  57  51 W15       29.98R
MOSINEE        SUNNY     75  59  57 W12G17    30.01R
MARSHFIELD     SUNNY     74  57  55 W10G20    30.02R
STEVENS POINT  SUNNY     72  57  59 W10G17    30.01R
WAUPACA        SUNNY     77  58  51 W6        29.99S
WAUTOMA        NOT AVBL
WISC RAPIDS    SUNNY     77  56  48 W12       30.02S
CAMP DOUGLAS   NOT AVBL
$$

WIZ011>013-019>022-031-037>040-048>050-301600-
NORTHEAST WISCONSIN

CITY           SKY/WX    TMP DP  RH WIND       PRES   REMARKS
ANTIGO         SUNNY     72  57  58 W13       29.98S
SHAWANO        SUNNY     77  58  52 W7        29.96S
OCONTO         SUNNY     76  57  51 W10G20    29.92S
STURGEON BAY   SUNNY     73  55  53 W13G22    29.94S
GREEN BAY      SUNNY     78  60  53 W15       29.96S
MANITOWOC      NOT AVBL
APPLETON       SUNNY     75  55  50 W15       29.99S
CLINTONVILLE   SUNNY     73  55  53 W12       29.97S
OSHKOSH        SUNNY     76  58  53 W9G17     29.99S
$$

WIZ032>034-041-042-053>061-301600-
SOUTHWEST WISCONSIN

CITY           SKY/WX    TMP DP  RH WIND       PRES   REMARKS
LA CROSSE      SUNNY     79  57  46 W5        30.04F HX  80
SPARTA         SUNNY     76  55  48 W9        30.05S
VIROQUA        SUNNY     74  58  57 W8        30.08R
BOSCOBEL       SUNNY     79  61  53 W5        30.07S HX  80
PRAIRIE DU CHI SUNNY     76  57  51 SW3       30.07S
PLATTEVILLE    SUNNY     74  64  70 W5        30.09S
$$

WIZ056-057-062-063-064-067-068-301600-
SOUTH CENTRAL WISCONSIN

CITY           SKY/WX    TMP DP  RH WIND       PRES   REMARKS
REEDSBURG      SUNNY     76  57  51 W9G18     30.05R
BARABOO/DELLS  SUNNY     77  54  44 W10G17    30.05R
LONE ROCK      NOT AVBL
MINERAL POINT  SUNNY     77  57  50 W8        30.09S
MADISON        SUNNY     77  59  53 VRB6      30.04S
MIDDLETON      SUNNY     78  56  46 W12       30.06S
WATERTOWN      SUNNY     75  61  62 W9        30.03S
MONROE         SUNNY     73  59  60 W9        30.08S
JANESVILLE     SUNNY     79  59  50 W8        30.06S HX  80
$$

WIZ051-052-058>065-066-070>072-301600-
SOUTHEAST WISCONSIN

CITY           SKY/WX    TMP DP  RH WIND       PRES   REMARKS
MILWAUKEE      SUNNY     80  53  39 NW12      30.02S HX  80
WAUKESHA       SUNNY     75  55  50 W14       30.04S
MILWAUKEE/TIMM SUNNY     79  54  41 W13       30.03R
RACINE         SUNNY     79  58  48 W8        30.04S HX  80
BURLINGTON     SUNNY     77  56  48 W8        30.05R
KENOSHA        SUNNY     78  61  55 W9        30.04F HX  80
FOND DU LAC    SUNNY     78  59  51 W13       30.00S
SHEBOYGAN      SUNNY     78  59  51 W14       29.98S
WEST BEND      SUNNY     75  54  46 W8        30.01S
JUNEAU         SUNNY     73  60  64 W10       30.04S
$$

LSZ147-162-301600-
LAKE SUPERIOR

STATION/POSITION TIME  TEMP    WIND        PRES    WAVE
                       AIR SEA DIR/SP/G            HT/PER
                 (UTC) (F)     (DEG/KT/KT) (MB)    (FT/S)
W MID LAKE BUOY  1350   58 53  260/ 16/ 17 1010.9R   3/ 5
DEVILS ISLAND    1400   61     250/ 17/ 21 1012.7R
PORT WING        1400   69     250/ 11/ 16 1013.9R
SAXON HARBOR     1440   73                 1013.2R
$$

LMZ867-665-643>646-301600-
LAKE MICHIGAN

STATION/POSITION TIME  TEMP    WIND        PRES    WAVE
                       AIR SEA DIR/SP/G            HT/PER
                 (UTC) (F)     (DEG/KT/KT) (MB)    (FT/S)
CHAMBERS ISLAND  1400   72     220/  8/ 14 1012.2S
S GREEN BAY BUOY 1430   67 65  250/ 10/ 12 1014.9R
N MID LAKE BUOY  1350   70 69  250/ 17/ 21 1010.5R   4/ 4
NORTHPORT PIER   1400   72     280/ 10/ 17 1011.5S
SISTER BAY       1414   75     300/ 19/ 22   N/A
ALGOMA LAKESHORE 1442          240/  8/ 18   N/A
KEWAUNEE LAKESHO 1400          280/  8/ 17   N/A
SHEBOYGAN LAKESH 1400   73     270/ 11/ 15 1015.1R
PORT WASHINGTON  1400   77     280/  9/ 14 1016.3
ATWATER BUOY     1400   69     280/ 10/ 12 1017.5R
MILWAUKEE LAKESH 1400   76     290/ 11/ 15   N/A
KENOSHA   LAKESH 1400   73     280/  9/ 13 1016.9R
$$

TC  - TEMPERATURE IN CELSIUS
VSB - VISIBILITY IN STATUTE MILES
WCI - WIND CHILL INDEX
HX  - HEAT INDEX




USA.gov is the U.S. government's official web portal to all federal, state and local government web resources and services.